Tracking 18796 objects as of 20-September-2017
HD Live streaming from Space Station
objects crossing your sky now

FLOCK 2K 34

Track FLOCK 2K 34 now!
10-day predictions
FLOCK 2K 34 is classified as:


NORAD ID: 42878
Int'l Code: 2017-042BF
Perigee: 462.7 km
Apogee: 481.0 km
Inclination: 97.0 °
Period: 93.9 minutes
Semi major axis: 6842 km
RCS: Unknown
Launch date: July 14, 2017
Source: United States (US)
Launch site: TYURATAM MISSILE AND SPACE COMPLEX (TTMTR)
aabbcc
Your satellite tracking list
Your tracking list is empty





NASA's NSSDC Master Catalog

Two Line Element Set (TLE):
1 42878U 17042BF  17262.69233639 +.00006604 +00000-0 +20421-3 0  9990
2 42878 096.9964 168.1218 0013441 009.0798 351.0686 15.33724273010138
Source of the keplerian elements: AFSPC